Location: Chervonnoye
(48.6000°N, 34.4000°E)
Time: 01:18:39
(UTC+00:00)

NOAA 15 - Pass Details

Date: 07 December 2021
Orbit: 797 x 812 km, 98.7° (Epoch: 17 January)

Event Time Altitude Azimuth Distance (km) Brightness Sun altitude
Rises 14:33:16 0° 106° (ESE) 3,320 7.3 -7.4°
Reaches altitude 10° 14:36:45 10° 82° (E) 2,391 6.5 -7.9°
Maximum altitude 14:39:19 14° 53° (NE) 2,130 6.2 -8.3°
Drops below altitude 10° 14:41:54 10° 23° (NNE) 2,393 6.6 -8.7°
Sets 14:45:22 0° 359° (N) 3,325 7.6 -9.2°
